Weather observations for the past three days for
Pope Air Force Base
Imperial (Metric)
Date Time (edt) Wind (mph) Vis. (mi.) Weather Sky Cond. Temperature (ºF) Relative Humidity Wind Chill (°F) Heat Index (°F) Pressure Precipitation (in)
Air Dwpt 6 hour altimeter (in) sea level (mb) 1 hr 3 hr 6 hr
Max. Min.
25 10:55 SW 8 10.00 Light Rain BKN010 BKN110 79.2 74.1 85% 83 30.17 1021.7 0.05
25 09:55 SW 8 10.00 Mostly Cloudy SCT009 BKN018 BKN029 BKN140 77.9 73.9 88% 80 30.18 1022.0
25 08:55 S 6 10.00 Light Rain FEW008 BKN023 OVC030 77.2 74.3 91% 79 30.18 1022.0 0.05
25 07:55 S 5 5.00 Light Rain Fog/Mist FEW025 BKN039 OVC048 77 74.5 78.8 76.3 92% 78 30.17 1021.7 0.08 0.26
25 06:55 S 3 10.00 Overcast OVC044 76.6 73.4 90% 77 30.17 1021.7
25 05:55 S 5 10.00 Light Drizzle FEW023 FEW047 76.3 73 90% 77 30.16 1021.3 0.01
25 04:55 SW 5 4.00 Light Rain Fog/Mist FEW006 FEW010 BKN018 OVC035 76.3 73.4 91% 77 30.17 1021.7 0.17 0.17
25 03:55 SW 5 10.00 Overcast OVC015 77.9 73 85% 80 30.16 1021.3
25 02:55 SW 6 10.00 Mostly Cloudy BKN017 BKN065 BKN100 78.1 72.9 84% 81 30.18 1022.0
25 01:55 SW 6 10.00 Overcast OVC090 78.8 73.2 84.9 78.6 83% 82 30.18 1022.0
25 00:55 SW 8 10.00 Overcast OVC110 79.5 73 81% 83 30.18 1022.0
24 23:55 SW 9 10.00 Mostly Cloudy FEW120 SCT170 BKN220 79.9 73 80% 84 30.17 1021.7
24 22:55 SW 9 10.00 Overcast BKN110 BKN170 OVC200 80.8 73.2 78% 86 30.18 1022.0
24 21:55 S 10 10.00 Overcast SCT120 SCT150 OVC190 82 72.9 74% 87 30.17 1021.7
24 20:55 S 13 10.00 Overcast SCT150 OVC200 83.7 71.4 67% 89 30.16 1021.4
24 19:55 S 7 10.00 Mostly Cloudy BKN170 85.1 72.3 92.5 85.1 66% 91 30.14 1020.7
24 18:55 S 10 10.00 Partly Cloudy SCT095 SCT120 87.8 75 66% 98 30.11 1019.7
24 16:55 SW 13 G 16 10.00 Partly Cloudy SCT042 91.4 73.9 57% 101 30.12 1020.0
24 15:55 S 9 10.00 Mostly Cloudy BKN044 91.4 72.9 55% 100 30.12 1020.0
24 14:55 S 9 10.00 A Few Clouds FEW037 FEW190 90.3 73.9 59% 100 30.14 1020.7
24 13:55 SW 8 10.00 A Few Clouds FEW200 87.8 74.5 87.8 74.5 65% 97 30.16 1021.3
24 12:55 SW 10 10.00 A Few Clouds FEW150 FEW180 85.3 74.3 70% 93 30.18 1022.0
24 11:55 SW 12 10.00 A Few Clouds FEW200 84.7 74.3 71% 92 30.18 1022.0
24 10:55 SW 9 10.00 Mostly Cloudy BKN200 BKN220 80.4 72.5 77% 85 30.18 1022.0
24 09:55 SW 9 10.00 Overcast BKN170 OVC200 77.9 72.7 84% 80 30.17 1021.7
24 08:55 SW 10 10.00 Overcast OVC160 76.1 72 87% 77 30.17 1021.7
24 07:55 S 7 10.00 Overcast BKN006 OVC160 74.3 71.4 77 73.6 91% 30.16 1021.4 0.23
24 06:55 S 7 10.00 Overcast OVC005 74.3 71.8 92% 30.16 1021.4
24 05:55 SE 3 10.00 Light Rain FEW007 FEW080 SCT095 74.1 71.2 91% 30.13 1020.3 0.05
24 04:55 S 7 10.00 Rain OVC095 73.9 71.1 91% 30.14 1020.7 0.11 0.18
24 03:55 SW 13 9.00 Rain BKN008 BKN050 BKN090 OVC120 74.7 71.4 90% 30.16 1021.3 0.03
24 02:55 S 12 G 18 10.00 Light Rain SCT090 BKN140 75.6 72.3 90% 75 30.12 1020.0 0.04
24 01:55 S 7 10.00 Light Rain BKN070 BKN090 OVC130 76.6 73.4 82 75.4 90% 77 30.13 1020.3 0.06 0.17
24 00:55 W 6 9.00 Thunderstorm in Vicinity Rain FEW060 BKN075 OVC130 75.9 72.7 90% 76 30.16 1021.3 0.11
23 23:55 SW 8 10.00 Thunderstorm in Vicinity Light Drizzle BKN050 BKN065 OVC130 77.9 73.4 86% 80 30.14 1020.6
23 22:55 Calm 10.00 Mostly Cloudy SCT055 BKN100 80.4 74.3 82% 85 30.1 1019.3
23 21:55 S 5 10.00 Overcast SCT034 BKN055 OVC065 81.5 75.7 83% 88 30.11 1019.6
23 20:55 Calm 10.00 A Few Clouds FEW060 81.3 75.9 84% 88 30.08 1018.6
23 19:55 W 5 10.00 Fair CLR 82.2 74.3 93.2 81.1 77% 89 30.05 1017.6 0.07 0.07
23 18:55 NW 10 10.00 Thunderstorm in Vicinity SCT050 BKN150 84.4 74.3 72% 92 30.06 1018.0
23 17:55 SW 9 10.00 Partly Cloudy SCT049 90.7 71.6 54% 98 30.03 1016.9
23 16:55 S 9 10.00 A Few Clouds FEW046 91.6 72 53% 99 30.03 1016.9
23 15:55 S 8 10.00 Fair CLR 91.9 73.4 55% 101 30.04 1017.3
23 14:55 SW 15 10.00 Mostly Cloudy SCT043 BKN170 BKN200 90.1 72.3 56% 98 30.05 1017.6
23 13:55 S 10 G 18 10.00 A Few Clouds FEW044 91.2 72.7 91.8 77.2 55% 99 30.07 1018.3
23 12:55 S 9 10.00 Partly Cloudy FEW039 SCT060 90.5 72.5 56% 98 30.09 1018.9
23 11:55 SW 8 10.00 Partly Cloudy FEW035 SCT043 SCT050 89.1 73.8 61% 98 30.1 1019.3
23 10:55 SW 5 10.00 Fair CLR 87.3 73.9 65% 96 30.09 1019.0
23 09:55 Calm 10.00 Fair CLR 83.3 74.8 76% 91 30.09 1019.0
23 08:55 SW 6 10.00 Partly Cloudy FEW140 SCT170 79.7 74.3 84% 84 30.1 1019.3
23 07:55 SW 7 10.00 Light Drizzle BKN170 77.4 73 77.5 75.2 87% 79 30.09 1019.0
23 06:55 Calm 10.00 Fair CLR 75.7 72.5 90% 76 30.08 1018.7
23 05:55 S 3 10.00 Overcast SCT060 OVC160 75.9 72.1 88% 76 30.07 1018.3
23 04:55 S 3 10.00 Overcast FEW065 OVC150 75.7 72 88% 76 30.06 1018.0
23 03:55 S 5 10.00 Overcast SCT019 BKN160 OVC190 75.6 72 89% 75 30.04 1017.3
23 02:55 S 5 10.00 Overcast FEW050 OVC160 76.3 71.8 86% 77 30.04 1017.3
23 01:55 SW 5 10.00 Mostly Cloudy FEW047 BKN140 BKN170 75.9 72.1 79.5 75.9 88% 76 30.06 1018.0
23 00:55 S 3 10.00 Mostly Cloudy BKN180 76.8 72.3 86% 78 30.04 1017.3
22 23:55 S 3 10.00 Overcast FEW017 OVC160 77.7 73.4 87% 80 30.05 1017.6
22 22:55 SE 5 10.00 Mostly Cloudy FEW037 SCT160 BKN190 77.4 74.1 90% 79 30.06 1018.0
22 21:55 SE 6 10.00 Fair CLR 76.8 73.6 90% 78 30.04 1017.3
22 20:55 Calm 10.00 A Few Clouds FEW019 76.5 72.5 88% 77 30.02 1016.6
22 19:55 Calm 10.00 A Few Clouds FEW060 FEW140 79.5 73 89.6 76.3 81% 83 29.99 1015.6 0.64
22 18:55 S 5 10.00 Fair CLR 80.8 72.5 76% 85 29.98 1015.3
22 17:55 S 8 10.00 Thunderstorm in Vicinity SCT055 BKN120 BKN180 78.6 74.3 87% 82 29.98 1015.3 0.28
22 16:55 W 12 0.88 Thunderstorm Heavy Rain Fog/Mist FEW004 OVC041 76.3 73 90% 77 30 1016.0 0.34 0.36
22 15:55 S 13 G 22 10.00 Overcast BKN021 BKN035 OVC060 82.4 73.6 75% 88 30 1015.9 0.02
22 14:55 S 10 10.00 Partly Cloudy SCT034 89.2 72.9 59% 97 29.99 1015.6
22 13:55 SW 7 10.00 Mostly Cloudy BKN030 BKN036 BKN046 87.4 74.7 87.6 75.2 66% 97 30.02 1016.6
22 12:55 S 6 10.00 Overcast SCT028 BKN033 BKN060 OVC100 86.4 73.9 67% 94 30.04 1017.3
22 11:55 Calm 10.00 Overcast BKN023 OVC120 84.6 72 66% 90 30.05 1017.6
Date Time (edt) Wind (mph) Vis. (mi.) Weather Sky Cond. Air Dwpt Max. Min. Relative Humidity Wind Chill (°F) Heat Index (°F) altimeter (in) sea level (mb) 1 hr 3 hr 6 hr
6 hour
Temperature (ºF) Pressure Precipitation (in)